Kosmos-1684

operational
NORAD ID: 16064 Int'l Des: 1985-084 Owner: PVO Country: SU
MEOELLIPTICALHEO_ELLIPTICALSEMI_SYNC

About Kosmos-1684

Description loading...

Live Position

Loading 3D Globe...

Upcoming Passes

Altitude History

Altitude vs Time

uPlot chart will show altitude changes over time

Two-Line Element Set

1 16064U 85084A 26059.53195824 -.00000102 00000-0 00000+0 0 9994
2 16064 67.6801 88.2667 5164900 97.8990 321.2216 2.00825677296147
Epoch: Feb 28, 2026 • Age: 75 hours

Current Status

Altitude 16233.4 km
Velocity 4.50 km/s
Sub-Earth Point -21.75°S, 67.14°E
Launch Date Sep 24, 1985
Age 40.4 years
Type other

Technical Details

Classification Payload
Mass 1250.00 kg
Dry Mass 1150.00 kg
Total Mass 1250.00 kg
Length 4.00 m
Diameter 2.00 m
Span 5.00 m
Shape Cyl + 2 Pan
Manufacturer NPOL/KOMET
Bus Type Oko
Phase Status In Orbit
Owner/State PVO/SU

Large Constellations

Loading constellations...